| time (UTC) | temp F | wind direction | speed MPH | gust MPH | rain 1hr in | rain 24hr in | rain mn in | humidity % | barometer mb |
| 20260509023041 | 81 | 113 | 6.0 | 10.0 | 0.00 | 0.00 | 0.00 | 89 | 1008.3 |
| 20260509021548 | 81 | 136 | 9.0 | 12.0 | 0.00 | 0.00 | 0.00 | 89 | 1008.6 |
| 20260509020047 | 81 | 141 | 10.0 | 12.0 | 0.00 | 0.00 | 0.00 | 89 | 1008.6 |
| 20260509014540 | 81 | 145 | 11.0 | 17.0 | 0.00 | 0.00 | 0.00 | 89 | 1008.3 |
| 20260509013100 | 81 | 146 | 11.0 | 16.0 | 0.00 | 0.00 | 0.00 | 89 | 1008.0 |
| 20260509011554 | 81 | 134 | 6.0 | 14.0 | 0.00 | 0.00 | 0.00 | 88 | 1007.7 |
| 20260509010056 | 81 | 137 | 8.0 | 18.0 | 0.00 | 0.00 | 0.00 | 88 | 1007.2 |
| 20260509004610 | 81 | 127 | 13.0 | 20.0 | 0.00 | 0.00 | 0.00 | 88 | 1007.6 |
| 20260509003051 | 81 | 108 | 12.0 | 17.0 | 0.00 | 0.00 | 0.00 | 88 | 1007.2 |
| 20260509001549 | 81 | 132 | 13.0 | 20.0 | 0.00 | 0.00 | 0.00 | 87 | 1006.5 |
| 20260509000047 | 81 | 134 | 10.0 | 16.0 | 0.00 | 0.00 | 0.00 | 87 | 1006.1 |
| 20260508234546 | 81 | 143 | 9.0 | 21.0 | 0.00 | 0.00 | 0.00 | 87 | 1005.9 |
| 20260508233059 | 82 | 133 | 8.0 | 18.0 | 0.00 | 0.00 | 0.00 | 86 | 1005.9 |
| 20260508231549 | 82 | 115 | 8.0 | 18.0 | 0.00 | 0.00 | 0.00 | 86 | 1005.9 |
| 20260508230056 | 82 | 69 | 8.0 | 21.0 | 0.00 | 0.00 | 0.00 | 85 | 1005.8 |
| 20260508224547 | 83 | 124 | 6.0 | 16.0 | 0.00 | 0.00 | 0.00 | 84 | 1005.9 |
| 20260508223046 | 83 | 137 | 8.0 | 17.0 | 0.00 | 0.00 | 0.00 | 84 | 1005.8 |
| 20260508221542 | 83 | 92 | 9.0 | 18.0 | 0.00 | 0.00 | 0.00 | 83 | 1005.7 |
| 20260508220046 | 83 | 114 | 10.0 | 18.0 | 0.00 | 0.00 | 0.00 | 83 | 1005.8 |
| 20260508214549 | 83 | 106 | 6.0 | 19.0 | 0.00 | 0.00 | 0.00 | 83 | 1005.9 |
| 20260508213045 | 83 | 136 | 6.0 | 21.0 | 0.00 | 0.00 | 0.00 | 83 | 1006.2 |
| 20260508211544 | 83 | 113 | 14.0 | 19.0 | 0.00 | 0.00 | 0.00 | 81 | 1006.5 |
| 20260508210053 | 83 | 132 | 16.0 | 20.0 | 0.00 | 0.00 | 0.00 | 81 | 1006.8 |
| 20260508204552 | 83 | 131 | 12.0 | 21.0 | 0.00 | 0.00 | 0.00 | 81 | 1007.1 |
| 20260508203048 | 83 | 134 | 15.0 | 18.0 | 0.00 | 0.00 | 0.00 | 81 | 1007.3 |
| 20260508201546 | 83 | 142 | 13.0 | 21.0 | 0.00 | 0.00 | 0.00 | 81 | 1007.4 |
| 20260508200049 | 84 | 127 | 14.0 | 17.0 | 0.00 | 0.00 | 0.00 | 80 | 1007.8 |
| 20260508194546 | 83 | 134 | 10.0 | 16.0 | 0.00 | 0.00 | 0.00 | 80 | 1008.2 |
| 20260508193053 | 84 | 139 | 8.0 | 17.0 | 0.00 | 0.00 | 0.00 | 80 | 1008.5 |
| 20260508191546 | 83 | 99 | 10.0 | 14.0 | 0.00 | 0.00 | 0.00 | 80 | 1008.8 |
| 20260508190055 | 84 | 133 | 9.0 | 16.0 | 0.00 | 0.00 | 0.00 | 80 | 1009.1 |
| 20260508184600 | 84 | 98 | 4.0 | 15.0 | 0.00 | 0.00 | 0.00 | 80 | 1009.1 |
| 20260508183052 | 83 | 99 | 6.0 | 15.0 | 0.00 | 0.00 | 0.00 | 80 | 1009.4 |
| 20260508181600 | 83 | 119 | 9.0 | 15.0 | 0.00 | 0.00 | 0.00 | 82 | 1009.9 |
| 20260508180050 | 83 | 113 | 6.0 | 12.0 | 0.00 | 0.00 | 0.00 | 83 | 1010.2 |
| 20260508174546 | 83 | 97 | 10.0 | 16.0 | 0.00 | 0.00 | 0.00 | 82 | 1010.4 |
| 20260508173050 | 83 | 97 | 10.0 | 17.0 | 0.00 | 0.00 | 0.00 | 81 | 1010.6 |
| 20260508171545 | 83 | 98 | 9.0 | 14.0 | 0.00 | 0.00 | 0.00 | 81 | 1010.8 |
| 20260508170043 | 83 | 101 | 8.0 | 13.0 | 0.00 | 0.00 | 0.00 | 81 | 1010.9 |
| 20260508164559 | 82 | 105 | 7.0 | 13.0 | 0.00 | 0.00 | 0.00 | 84 | 1011.1 |
| 20260508163038 | 82 | 77 | 9.0 | 14.0 | 0.00 | 0.00 | 0.00 | 85 | 1011.3 |
| 20260508161550 | 82 | 93 | 10.0 | 13.0 | 0.00 | 0.00 | 0.00 | 85 | 1011.3 |
| 20260508160038 | 81 | 95 | 9.0 | 15.0 | 0.00 | 0.00 | 0.00 | 85 | 1011.4 |
| 20260508154542 | 82 | 82 | 7.0 | 12.0 | 0.00 | 0.00 | 0.00 | 86 | 1011.5 |
| 20260508153048 | 81 | 96 | 8.0 | 12.0 | 0.00 | 0.00 | 0.00 | 86 | 1011.8 |
| 20260508151539 | 81 | 77 | 6.0 | 11.0 | 0.00 | 0.00 | 0.00 | 87 | 1011.8 |
| 20260508150058 | 81 | 80 | 10.0 | 13.0 | 0.00 | 0.00 | 0.00 | 87 | 1011.8 |
| 20260508144603 | 81 | 85 | 9.0 | 13.0 | 0.00 | 0.00 | 0.00 | 88 | 1011.9 |
| 20260508143057 | 80 | 78 | 12.0 | 14.0 | 0.00 | 0.00 | 0.00 | 88 | 1011.8 |
| 20260508141545 | 80 | 35 | 10.0 | 12.0 | 0.00 | 0.00 | 0.00 | 89 | 1011.9 |
| 20260508140046 | 80 | 18 | 6.0 | 12.0 | 0.00 | 0.00 | 0.00 | 90 | 1012.0 |
| 20260508134553 | 80 | 33 | 10.0 | 14.0 | 0.00 | 0.00 | 0.00 | 91 | 1011.9 |
| 20260508133109 | 80 | 36 | 10.0 | 15.0 | 0.00 | 0.00 | 0.00 | 91 | 1011.8 |
| 20260508131544 | 79 | 37 | 11.0 | 15.0 | 0.00 | 0.00 | 0.00 | 91 | 1011.9 |
| 20260508130039 | 79 | 32 | 7.0 | 11.0 | 0.00 | 0.00 | 0.00 | 92 | 1011.9 |
| 20260508124549 | 79 | 89 | 5.0 | 9.0 | 0.00 | 0.00 | 0.00 | 92 | 1011.8 |
| 20260508123054 | 79 | 47 | 3.0 | 8.0 | 0.00 | 0.00 | 0.00 | 92 | 1011.8 |
| 20260508121546 | 79 | 40 | 5.0 | 8.0 | 0.00 | 0.00 | 0.00 | 92 | 1011.7 |
| 20260508120052 | 79 | 347 | 6.0 | 10.0 | 0.00 | 0.00 | 0.00 | 92 | 1011.6 |
| 20260508114539 | 79 | 354 | 7.0 | 10.0 | 0.00 | 0.00 | 0.00 | 92 | 1011.4 |
| 20260508113107 | 79 | 31 | 4.0 | 7.0 | 0.00 | 0.00 | 0.00 | 92 | 1011.5 |
| 20260508111544 | 79 | 44 | 4.0 | 7.0 | 0.00 | 0.00 | 0.00 | 92 | 1011.4 |
| 20260508110054 | 79 | 20 | 7.0 | 11.0 | 0.00 | 0.00 | 0.00 | 92 | 1011.3 |
| 20260508104541 | 79 | 40 | 8.0 | 11.0 | 0.00 | 0.00 | 0.00 | 92 | 1011.1 |
| 20260508103044 | 79 | 79 | 5.0 | 9.0 | 0.00 | 0.00 | 0.00 | 93 | 1011.1 |
| 20260508101538 | 79 | 46 | 9.0 | 11.0 | 0.00 | 0.00 | 0.00 | 93 | 1011.2 |
| 20260508100039 | 79 | 78 | 11.0 | 16.0 | 0.00 | 0.00 | 0.00 | 93 | 1011.0 |
| 20260508094545 | 79 | 81 | 14.0 | 19.0 | 0.00 | 0.00 | 0.00 | 93 | 1011.1 |
| 20260508093043 | 79 | 82 | 14.0 | 18.0 | 0.00 | 0.00 | 0.00 | 93 | 1010.8 |
| 20260508091557 | 79 | 77 | 14.0 | 19.0 | 0.00 | 0.00 | 0.00 | 93 | 1011.0 |
| 20260508090059 | 79 | 72 | 15.0 | 18.0 | 0.00 | 0.00 | 0.00 | 93 | 1010.8 |
| 20260508084545 | 79 | 72 | 15.0 | 18.0 | 0.00 | 0.00 | 0.00 | 93 | 1010.7 |
| 20260508083046 | 79 | 77 | 10.0 | 18.0 | 0.00 | 0.00 | 0.00 | 93 | 1010.6 |
| 20260508081543 | 79 | 84 | 12.0 | 16.0 | 0.00 | 0.00 | 0.00 | 93 | 1010.3 |
| 20260508080050 | 79 | 60 | 12.0 | 18.0 | 0.00 | 0.00 | 0.00 | 93 | 1010.5 |
| 20260508074543 | 79 | 82 | 13.0 | 17.0 | 0.00 | 0.00 | 0.00 | 93 | 1010.4 |
| 20260508073056 | 80 | 59 | 13.0 | 15.0 | 0.00 | 0.00 | 0.00 | 93 | 1010.5 |
| 20260508071555 | 80 | 85 | 12.0 | 16.0 | 0.00 | 0.00 | 0.00 | 93 | 1010.4 |
| 20260508070046 | 80 | 77 | 10.0 | 12.0 | 0.00 | 0.00 | 0.00 | 93 | 1010.8 |
| 20260508064543 | 80 | 39 | 8.0 | 13.0 | 0.00 | 0.00 | 0.00 | 93 | 1011.0 |
| 20260508063049 | 80 | 75 | 9.0 | 13.0 | 0.00 | 0.00 | 0.00 | 93 | 1011.1 |
| 20260508061551 | 80 | 99 | 8.0 | 11.0 | 0.00 | 0.00 | 0.00 | 93 | 1010.9 |
| 20260508060048 | 80 | 99 | 8.0 | 12.0 | 0.00 | 0.00 | 0.00 | 93 | 1011.0 |
| 20260508054550 | 80 | 98 | 7.0 | 13.0 | 0.00 | 0.00 | 0.00 | 93 | 1010.7 |
| 20260508053113 | 80 | 113 | 8.0 | 10.0 | 0.00 | 0.00 | 0.00 | 93 | 1010.7 |
| 20260508051543 | 80 | 108 | 9.0 | 12.0 | 0.00 | 0.00 | 0.00 | 92 | 1011.0 |
| 20260508050051 | 80 | 103 | 8.0 | 11.0 | 0.00 | 0.00 | 0.00 | 93 | 1010.9 |
| 20260508044546 | 80 | 103 | 8.0 | 13.0 | 0.00 | 0.00 | 0.00 | 93 | 1011.0 |
| 20260508043046 | 80 | 89 | 9.0 | 14.0 | 0.00 | 0.00 | 0.00 | 93 | 1010.9 |
| 20260508041609 | 80 | 110 | 9.0 | 14.0 | 0.00 | 0.00 | 0.00 | 93 | 1010.8 |
| 20260508040107 | 80 | 106 | 7.0 | 12.0 | 0.00 | 0.00 | 0.00 | 93 | 1010.9 |
| 20260508034547 | 80 | 91 | 11.0 | 13.0 | 0.00 | 0.00 | 0.00 | 92 | 1010.6 |
| 20260508033048 | 80 | 110 | 7.0 | 12.0 | 0.00 | 0.00 | 0.00 | 93 | 1010.9 |
| 20260508031546 | 80 | 95 | 11.0 | 15.0 | 0.00 | 0.00 | 0.00 | 92 | 1010.9 |
| 20260508030046 | 80 | 99 | 10.0 | 16.0 | 0.00 | 0.00 | 0.00 | 92 | 1010.9 |
| 20260508024604 | 80 | 92 | 13.0 | 18.0 | 0.00 | 0.00 | 0.00 | 93 | 1010.5 |